Cut Bank, MT

5:59 AM MDT on September 26, 2017 (GMT -0600)
Cut Bank Municipal

Weather History for KCTB - February, 2014

Change the Weather History Date:

Monday, February 10, 2014

  Actual Average Record
Temperature  
Mean Temperature 10 °F 23 °F  
Max Temperature 37 °F 35 °F 59 °F (1926)
Min Temperature -18 °F 12 °F -33 °F (1939)
Degree Days  
Heating Degree Days 55 42  
Month to date heating degree days 705 420  
Since 1 July heating degree days 5413 5338  
Cooling Degree Days 0 0  
Month to date cooling degree days 0 0  
Year to date cooling degree days 0 0  
Moisture  
Dew Point 3 °F    
Average Humidity 73    
Maximum Humidity 87    
Minimum Humidity 59    
Precipitation  
Precipitation 0.00 in 0.00 in 0.24 in (1922)
Month to date precipitation 0.01 0.06  
Year to date precipitation 0.46 0.26  
Snow  
Snow 0.00 in - - ()
Snow Depth 4.00 in    
Sea Level Pressure  
Sea Level Pressure 30.12 in    
Wind  
Wind Speed 14 mph (WNW)    
Max Wind Speed 44 mph    
Max Gust Speed 51 mph    
Visibility 10 miles    
Events      
T = Trace of Precipitation, MM = Missing Value Source: NWS Daily Summary

Daily Weather History Graph

Daily Weather History Graph

Search for Another Location

Airport or City:

Trip Planner

Search our weather history database for the weather conditions in past years. The results will help you decide how hot, cold, wet, or windy it might be!

Date:

Astronomy

Feb. 10, 2014 Rise Set
Actual Time 7:45 AM MST 5:42 PM MST
Civil Twilight 7:12 AM MST 6:15 PM MST
Nautical Twilight 6:35 AM MST 6:52 PM MST
Astronomical Twilight 5:59 AM MST 7:29 PM MST
Moon 2:06 PM MST (2/10) 4:49 AM MST (2/10)
Length of Visible Light 11h 03m
Length of Day
9h 57m
Waxing Gibbous, 85% of the Moon is Illuminated
Feb 10
Waxing Gibbous
Feb 14
Full
Feb 22
Last Quarter
Mar 1
New
Mar 8
First Quarter

Hourly Weather History & Observations

Time (MST) Temp. Windchill Dew Point Humidity Pressure Visibility Wind Dir Wind Speed Gust Speed Precip Events Conditions
12:56 AM -14.1 °F -26.3 °F -18.0 °F 82% 30.28 in 10.0 mi North 4.6 mph - N/A   Clear
1:56 AM -14.1 °F -26.3 °F -20.0 °F 75% 30.27 in 10.0 mi North 4.6 mph - N/A   Clear
2:56 AM -13.0 °F - -17.0 °F 82% 30.25 in 10.0 mi Calm Calm - N/A   Clear
3:56 AM -13.0 °F - -17.0 °F 82% 30.26 in 9.0 mi Calm Calm - N/A   Clear
4:56 AM -16.1 °F -30.6 °F -20.9 °F 79% 30.26 in 10.0 mi NNE 5.8 mph - N/A   Clear
5:56 AM -16.1 °F -28.6 °F -22.0 °F 74% 30.27 in 10.0 mi NNE 4.6 mph - N/A   Clear
6:56 AM -16.1 °F -30.6 °F -20.9 °F 79% 30.27 in 10.0 mi NNE 5.8 mph - N/A   Clear
7:56 AM -17.0 °F -33.4 °F -22.0 °F 78% 30.28 in 10.0 mi NNW 6.9 mph - N/A   Clear
8:56 AM -11.0 °F -22.8 °F -17.0 °F 75% 30.26 in 10.0 mi North 4.6 mph - N/A   Clear
9:56 AM -6.0 °F -14.7 °F -11.9 °F 75% 30.25 in 10.0 mi North 3.5 mph - N/A   Clear
10:56 AM -2.0 °F -10.1 °F -9.0 °F 72% 30.23 in 10.0 mi North 3.5 mph - N/A   Clear
11:56 AM 3.9 °F -5.3 °F -0.9 °F 80% 30.22 in 10.0 mi Variable 4.6 mph - N/A   Clear
12:56 PM 12.0 °F 0.5 °F 6.1 °F 77% 30.17 in 10.0 mi SW 8.1 mph - N/A   Clear
1:56 PM 30.0 °F 17.2 °F 21.0 °F 69% 30.09 in 10.0 mi WSW 20.7 mph 29.9 mph N/A   Clear
2:56 PM 32.0 °F 18.6 °F 21.9 °F 66% 30.05 in 10.0 mi West 25.3 mph - N/A   Mostly Cloudy
3:56 PM 33.1 °F 18.4 °F 24.1 °F 70% 30.04 in 7.0 mi WSW 33.4 mph 42.6 mph N/A   Overcast
4:56 PM 33.1 °F 21.5 °F 23.0 °F 66% 30.03 in 10.0 mi West 19.6 mph - N/A   Clear
5:56 PM 35.1 °F 22.5 °F 24.1 °F 64% 29.99 in 10.0 mi WSW 26.5 mph 33.4 mph N/A   Clear
6:56 PM 35.1 °F 25.2 °F 23.0 °F 61% 29.99 in 10.0 mi WSW 16.1 mph 25.3 mph N/A   Clear
7:56 PM 34.0 °F 21.0 °F 26.1 °F 73% 29.93 in 10.0 mi WSW 26.5 mph 36.8 mph N/A   Clear
8:56 PM 35.1 °F 22.0 °F 26.1 °F 70% 29.91 in 10.0 mi WSW 28.8 mph 33.4 mph N/A   Clear
9:56 PM 34.0 °F 22.1 °F 25.0 °F 70% 29.90 in 10.0 mi WSW 21.9 mph - N/A   Clear
10:56 PM 34.0 °F 20.8 °F 25.0 °F 70% 29.86 in 10.0 mi West 27.6 mph - N/A   Clear
11:56 PM 34.0 °F 22.4 °F 25.0 °F 70% 29.86 in 10.0 mi WSW 20.7 mph - N/A   Clear